Simultaneous Nadir Overpasses (SNOs) Predictions

Prediction of SNOs between GOES-15 and TERRA Satellite Orbit:

Table of predicted SNOs for the next 14.0 days since TLE Epoch: 6/9/2012
Index Date Time (GOES-15) GOES-15 Lat,Lon TERRA Lat,Lon Distance(km) Time Diff (sec)
1 06/09/2012 07:36:29 0.07,-135.20 -0.14,-136.32 127.09 80
2 06/11/2012 07:21:43 0.08,-135.15 0.42,-133.38 200.80 80
3 06/11/2012 19:45:41 -0.05,-135.16 0.67,-138.54 384.39 80
4 06/13/2012 19:33:40 -0.05,-135.11 0.07,-135.63 59.03 80
5 06/15/2012 19:19:03 -0.06,-135.05 -0.55,-132.73 264.07 80
6 06/16/2012 07:43:11 0.03,-135.01 -0.58,-137.93 332.10 80
7 06/18/2012 07:31:18 0.03,-134.94 0.01,-135.05 11.99 80
8 06/20/2012 07:16:49 0.04,-134.87 0.63,-132.19 305.72 80
9 06/20/2012 19:40:50
